Вернуться в каталог

STARLINK-5845

АктивенСвязьVLEO
NORAD 57050·PAYLOAD·🇺🇸 United States

Запущен Jun 22, 2023 с Vandenberg Space Force Base

Loading…

Ближайшие Пролёты (ближайшие 24 часа)

TLE

СвежийSource: CelesTrak SupGP

Эпоха: Sep 14, 2026, 20:49 UTC

1 57050C 23088C   26257.86784722 -.00017461  00000+0 -63253-3 0  2573
2 57050  43.0003 122.1686 0001183 233.6839 211.8158 15.27581507    10

Отслеживайте STARLINK-5845 в реальном времени с AllMySat

Download on the App Store